Wrangell, AK

12:49 AM AKDT on April 28, 2017 (GMT -0800)
Wrangell

Weather History for PAWG - June, 2014

Change the Weather History Date:

Sunday, June 8, 2014

  Actual Average Record
Temperature  
Mean Temperature 50 °F -  
Max Temperature 53 °F 61 °F 77 °F (1969)
Min Temperature 48 °F 43 °F 35 °F (1967)
Degree Days  
Heating Degree Days 14    
Moisture  
Dew Point 45 °F    
Average Humidity 81    
Maximum Humidity 88    
Minimum Humidity 71    
Precipitation  
Precipitation 0.90 in - - ()
Sea Level Pressure  
Sea Level Pressure 29.98 in    
Wind  
Wind Speed 5 mph (SSE)    
Max Wind Speed 15 mph    
Max Gust Speed 21 mph    
Visibility 8 miles    
Events      
Averages and records for this station are not official NWS values.
T = Trace of Precipitation, MM = Missing Value Source: NWS Daily Summary

Daily Weather History Graph

Daily Weather History Graph

Search for Another Location

Airport or City:

Trip Planner

Search our weather history database for the weather conditions in past years. The results will help you decide how hot, cold, wet, or windy it might be!

Date:

Astronomy

Jun. 08, 2014 Rise Set
Actual Time 4:01 AM AKDT 9:36 PM AKDT
Civil Twilight 2:59 AM AKDT 10:38 PM AKDT
Nautical Twilight 1:20 AM AKDT 12:16 AM AKDT
Astronomical Twilight Sun does not set Sun does not set
Moon 4:10 PM AKDT (6/8) 1:56 AM AKDT (6/8)
Length of Visible Light 19h 39m
Length of Day
17h 34m
Waxing Gibbous, 78% of the Moon is Illuminated
Jun 8
Waxing Gibbous
Jun 12
Full
Jun 19
Last Quarter
Jun 27
New
Jul 5
First Quarter

Hourly Weather History & Observations

Time (AKDT) Temp. Dew Point Humidity Pressure Visibility Wind Dir Wind Speed Gust Speed Precip Events Conditions
12:16 AM 51.8 °F 48.2 °F 88% 29.97 in 10.0 mi West 6.9 mph - 0.02 in   Overcast
12:36 AM 51.8 °F 46.4 °F 82% 29.97 in 9.0 mi West 8.1 mph - 0.04 in   Overcast
12:56 AM 51.8 °F 46.4 °F 82% 29.96 in 9.0 mi West 4.6 mph - 0.05 in   Overcast
1:16 AM 51.8 °F 46.4 °F 82% 29.96 in 10.0 mi North 5.8 mph - N/A   Mostly Cloudy
1:36 AM 51.8 °F 46.4 °F 82% 29.96 in 10.0 mi NNW 3.5 mph - N/A   Partly Cloudy
1:56 AM 51.8 °F 46.4 °F 82% 29.96 in 8.0 mi Calm Calm - N/A   Mostly Cloudy
2:16 AM 51.8 °F 46.4 °F 82% 29.96 in 10.0 mi Calm Calm - N/A   Overcast
2:36 AM 51.8 °F 46.4 °F 82% 29.97 in 5.0 mi South 3.5 mph - 0.04 in   Overcast
2:56 AM 51.8 °F 46.4 °F 82% 29.97 in 10.0 mi South 6.9 mph - 0.07 in   Overcast
3:16 AM 51.8 °F 44.6 °F 76% 29.96 in 10.0 mi Calm Calm - 0.03 in   Overcast
3:36 AM 51.8 °F 46.4 °F 82% 29.96 in 10.0 mi ESE 4.6 mph - 0.05 in   Mostly Cloudy
3:56 AM 51.8 °F 46.4 °F 82% 29.96 in 9.0 mi Calm Calm - 0.07 in   Mostly Cloudy
4:16 AM 51.8 °F 46.4 °F 82% 29.96 in 10.0 mi SSE 9.2 mph - 0.02 in   Overcast
4:36 AM 51.8 °F 46.4 °F 82% 29.95 in 9.0 mi SE 15.0 mph - 0.04 in   Overcast
4:56 AM 51.8 °F 44.6 °F 76% 29.95 in 8.0 mi SSE 11.5 mph 20.7 mph 0.05 in   Overcast
5:16 AM 51.8 °F 44.6 °F 76% 29.96 in 9.0 mi SE 9.2 mph - 0.01 in   Overcast
5:36 AM 51.8 °F 44.6 °F 76% 29.96 in 5.0 mi South 5.8 mph - 0.02 in   Overcast
5:56 AM 51.8 °F 44.6 °F 76% 29.96 in 5.0 mi South 3.5 mph - 0.03 in   Overcast
6:16 AM 51.8 °F 46.4 °F 82% 29.96 in 5.0 mi Calm Calm - 0.01 in   Overcast
6:36 AM 51.8 °F 46.4 °F 82% 29.96 in 5.0 mi Calm Calm - 0.01 in   Overcast
6:56 AM 51.8 °F 46.4 °F 82% 29.95 in 10.0 mi Calm Calm - 0.01 in   Overcast
7:16 AM 51.8 °F 46.4 °F 82% 29.95 in 10.0 mi SSW 3.5 mph - N/A   Overcast
7:36 AM 51.8 °F 46.4 °F 82% 29.95 in 10.0 mi Calm Calm - N/A   Overcast
7:56 AM 51.8 °F 48.2 °F 88% 29.94 in 10.0 mi East 9.2 mph 17.3 mph N/A   Overcast
8:16 AM 53.6 °F 46.4 °F 77% 29.95 in 10.0 mi Calm Calm - N/A   Overcast
8:36 AM 53.6 °F 48.2 °F 82% 29.95 in 10.0 mi NNW 4.6 mph - N/A   Overcast
8:56 AM 51.8 °F 46.4 °F 82% 29.95 in 10.0 mi NNW 5.8 mph - N/A   Overcast
9:36 AM 51.8 °F 46.4 °F 82% 29.95 in 5.0 mi West 3.5 mph - 0.03 in   Overcast
9:56 AM 53.6 °F 48.2 °F 82% 29.95 in 7.0 mi WNW 5.8 mph - 0.03 in   Overcast
10:16 AM 53.6 °F 46.4 °F 77% 29.94 in 7.0 mi NNW 5.8 mph - N/A   Overcast
10:36 AM 53.6 °F 46.4 °F 77% 29.95 in 7.0 mi NNW 6.9 mph - N/A   Overcast
10:56 AM 53.6 °F 46.4 °F 77% 29.95 in 10.0 mi West 4.6 mph - N/A   Overcast
11:16 AM 53.6 °F 46.4 °F 77% 29.95 in 10.0 mi SW 5.8 mph - N/A   Overcast
11:36 AM 53.6 °F 46.4 °F 77% 29.94 in 10.0 mi SSW 4.6 mph - N/A   Overcast
11:56 AM 53.6 °F 46.4 °F 77% 29.95 in 10.0 mi Calm Calm - N/A   Overcast
12:16 PM 53.6 °F 46.4 °F 77% 29.95 in 10.0 mi West 11.5 mph - N/A   Overcast
12:36 PM 51.8 °F 42.8 °F 71% 29.95 in 10.0 mi West 12.7 mph 20.7 mph 0.03 in   Overcast
12:56 PM 50.0 °F 42.8 °F 76% 29.96 in 5.0 mi WSW 9.2 mph - 0.10 in   Overcast
1:16 PM 50.0 °F 44.6 °F 82% 29.98 in 5.0 mi WSW 3.5 mph - 0.06 in   Overcast
1:36 PM 51.8 °F 44.6 °F 76% 29.98 in 5.0 mi NE 3.5 mph - 0.11 in   Overcast
1:56 PM 50.0 °F 44.6 °F 82% 29.98 in 7.0 mi NE 4.6 mph - 0.13 in   Overcast
2:16 PM 51.8 °F 44.6 °F 76% 29.98 in 7.0 mi ENE 3.5 mph - N/A   Overcast
2:36 PM 51.8 °F 46.4 °F 82% 29.98 in 10.0 mi SE 5.8 mph - N/A   Overcast
2:56 PM 51.8 °F 46.4 °F 82% 29.98 in 10.0 mi SE 6.9 mph - N/A   Overcast
3:16 PM 51.8 °F 44.6 °F 76% 29.98 in 10.0 mi ESE 9.2 mph - N/A   Overcast
3:36 PM 51.8 °F 46.4 °F 82% 29.98 in 7.0 mi SE 6.9 mph - N/A   Overcast
3:56 PM 51.8 °F 44.6 °F 76% 29.99 in 6.0 mi WSW 4.6 mph - 0.08 in   Overcast
4:16 PM 50.0 °F 44.6 °F 82% 29.99 in 6.0 mi Calm Calm - 0.06 in   Overcast
4:36 PM 50.0 °F 44.6 °F 82% 29.99 in 7.0 mi Calm Calm - 0.10 in   Overcast
4:56 PM 50.0 °F 44.6 °F 82% 29.99 in 8.0 mi Calm Calm - 0.11 in   Overcast
5:16 PM 50.0 °F 42.8 °F 76% 29.99 in 8.0 mi Calm Calm - N/A   Overcast
5:36 PM 50.0 °F 42.8 °F 76% 30.00 in 8.0 mi Calm Calm - 0.01 in   Overcast
5:56 PM 50.0 °F 44.6 °F 82% 30.00 in 7.0 mi ESE 5.8 mph - 0.03 in   Overcast
6:16 PM 50.0 °F 44.6 °F 82% 30.00 in 7.0 mi ENE 3.5 mph - 0.03 in   Overcast
6:36 PM 50.0 °F 44.6 °F 82% 30.00 in 7.0 mi East 5.8 mph - 0.04 in   Overcast
6:56 PM 50.0 °F 44.6 °F 82% 30.00 in 7.0 mi SE 6.9 mph - 0.05 in   Overcast
7:16 PM 48.2 °F 42.8 °F 82% 30.00 in 8.0 mi ESE 9.2 mph - N/A   Overcast
7:36 PM 48.2 °F 42.8 °F 82% 30.01 in 7.0 mi SE 5.8 mph - 0.01 in   Overcast
7:56 PM 48.2 °F 44.6 °F 87% 30.01 in 7.0 mi SSE 4.6 mph - 0.03 in   Overcast
8:16 PM 48.2 °F 44.6 °F 87% 30.01 in 7.0 mi SSE 5.8 mph - 0.01 in   Overcast
8:36 PM 48.2 °F 44.6 °F 87% 30.01 in 7.0 mi SSE 4.6 mph - 0.02 in   Overcast
8:56 PM 48.2 °F 44.6 °F 87% 30.02 in 7.0 mi Calm Calm - 0.03 in   Overcast
9:16 PM 48.2 °F 44.6 °F 87% 30.03 in 6.0 mi Calm Calm - 0.01 in   Overcast
9:36 PM 48.2 °F 44.6 °F 87% 30.03 in 7.0 mi SE 4.6 mph - 0.01 in   Overcast
9:56 PM 48.2 °F 44.6 °F 87% 30.03 in 7.0 mi ESE 5.8 mph - 0.02 in   Overcast
10:16 PM 48.2 °F 44.6 °F 87% 30.04 in 7.0 mi East 6.9 mph - N/A   Overcast
10:36 PM 48.2 °F 44.6 °F 87% 30.04 in 7.0 mi SE 5.8 mph - N/A   Overcast
10:56 PM 48.2 °F 44.6 °F 87% 30.04 in 7.0 mi ESE 6.9 mph - 0.01 in   Overcast
11:16 PM 48.2 °F 44.6 °F 87% 30.04 in 10.0 mi ESE 8.1 mph - N/A   Overcast
11:36 PM 48.2 °F 44.6 °F 87% 30.04 in 10.0 mi ESE 9.2 mph - N/A   Overcast
11:56 PM 48.2 °F 44.6 °F 87% 30.05 in 10.0 mi SE 6.9 mph - N/A   Overcast